{"data":{"norad_id":68347,"epoch":"2026-09-20T04:42:40.506624Z","epoch_age_seconds":74718,"freshness":"FRESH","line1":"1 68347U 26059AC  26263.19630216  .00014279  00000+0  43290-3 0  9990","line2":"2 68347  53.1596 162.7927 0001261  92.1925 267.9222 15.34403548 27984","mean_motion":15.34403548,"eccentricity":0.0001261,"inclination_deg":53.1596,"raan_deg":162.7927,"arg_perigee_deg":92.1925,"mean_anomaly_deg":267.9222,"bstar":0.0004329,"rev_number":2798,"period_min":93.847541077245,"perigee_km":461.8300661992,"apogee_km":463.55532344823,"semimajor_km":6840.8296948237,"source":"CELESTRAK","updated_at":"2026-09-20T09:00:43.890852Z"}}